TimeEST,TemperatureF,Dew PointF,Humidity,Sea Level PressureIn,VisibilityMPH,Wind Direction,Wind SpeedMPH,Gust SpeedMPH,PrecipitationIn,Events,Conditions,WindDirDegrees,DateUTC
12:53 AM,75.9,68.0,76,29.98,10.0,SSW,6.9,-,N/A,,Clear,200,2014-01-15 05:53:00
1:53 AM,77.0,69.1,76,29.97,10.0,SSW,5.8,-,N/A,,Mostly Cloudy,210,2014-01-15 06:53:00
2:09 AM,77.0,70.0,79,29.97,10.0,SW,12.7,17.3,N/A,,Mostly Cloudy,230,2014-01-15 07:09:00
2:25 AM,73.0,70.0,90,29.97,10.0,WNW,8.1,-,0.00,,Overcast,290,2014-01-15 07:25:00
2:53 AM,72.0,69.1,91,29.96,10.0,NW,3.5,-,0.00,,Overcast,320,2014-01-15 07:53:00
3:53 AM,72.0,68.0,87,29.95,10.0,NW,4.6,-,0.00,,Mostly Cloudy,320,2014-01-15 08:53:00
4:37 AM,72.0,69.1,91,29.96,10.0,NW,6.9,-,N/A,,Mostly Cloudy,320,2014-01-15 09:37:00
4:45 AM,72.0,69.1,91,29.96,10.0,NNW,6.9,-,N/A,,Overcast,330,2014-01-15 09:45:00
4:53 AM,71.1,69.1,93,29.96,10.0,NNW,9.2,-,N/A,,Overcast,330,2014-01-15 09:53:00
5:03 AM,71.1,68.0,90,29.96,10.0,NNW,5.8,-,N/A,,Overcast,340,2014-01-15 10:03:00
5:53 AM,71.1,68.0,90,29.97,10.0,North,6.9,-,N/A,,Mostly Cloudy,350,2014-01-15 10:53:00
6:53 AM,71.1,66.9,87,29.98,10.0,North,5.8,-,N/A,,Mostly Cloudy,10,2014-01-15 11:53:00
7:53 AM,72.0,66.0,81,29.99,10.0,North,6.9,-,N/A,,Partly Cloudy,350,2014-01-15 12:53:00
8:53 AM,73.9,66.0,76,30.02,10.0,NNW,8.1,-,N/A,,Clear,340,2014-01-15 13:53:00
9:53 AM,72.0,64.9,78,30.05,10.0,NW,11.5,-,N/A,,Mostly Cloudy,320,2014-01-15 14:53:00
10:30 AM,72.0,66.0,81,30.05,10.0,NW,11.5,18.4,N/A,,Mostly Cloudy,310,2014-01-15 15:30:00
10:53 AM,70.0,64.9,84,30.06,10.0,NW,15.0,20.7,N/A,,Overcast,320,2014-01-15 15:53:00
11:06 AM,70.0,63.0,78,30.05,10.0,NW,16.1,25.3,N/A,,Overcast,310,2014-01-15 16:06:00
11:37 AM,70.0,62.1,76,30.04,10.0,NW,15.0,23.0,N/A,,Mostly Cloudy,320,2014-01-15 16:37:00
11:44 AM,70.0,62.1,76,30.04,10.0,NW,13.8,21.9,N/A,,Scattered Clouds,310,2014-01-15 16:44:00
11:53 AM,70.0,61.0,73,30.04,10.0,NW,16.1,24.2,N/A,,Partly Cloudy,320,2014-01-15 16:53:00
12:53 PM,68.0,60.1,76,30.01,10.0,NNW,12.7,-,N/A,,Mostly Cloudy,330,2014-01-15 17:53:00
1:53 PM,69.1,60.1,73,30.00,10.0,NW,8.1,-,N/A,,Mostly Cloudy,320,2014-01-15 18:53:00
2:53 PM,69.1,59.0,70,29.99,10.0,WNW,11.5,19.6,N/A,,Mostly Cloudy,300,2014-01-15 19:53:00
3:53 PM,68.0,57.9,70,29.98,10.0,NNW,11.5,-,N/A,,Mostly Cloudy,330,2014-01-15 20:53:00
4:53 PM,66.9,55.0,66,30.00,10.0,WNW,10.4,18.4,N/A,,Mostly Cloudy,300,2014-01-15 21:53:00
5:53 PM,66.9,57.0,70,30.00,10.0,NW,13.8,-,N/A,,Mostly Cloudy,320,2014-01-15 22:53:00
6:53 PM,66.9,55.9,68,30.01,10.0,NW,12.7,-,N/A,,Overcast,320,2014-01-15 23:53:00
7:53 PM,66.9,57.0,70,30.01,10.0,North,9.2,-,N/A,,Overcast,350,2014-01-16 00:53:00
8:53 PM,66.9,57.0,70,30.00,10.0,North,8.1,-,N/A,,Mostly Cloudy,350,2014-01-16 01:53:00
9:53 PM,66.9,57.0,70,30.03,10.0,NW,11.5,-,N/A,,Overcast,310,2014-01-16 02:53:00
10:53 PM,66.9,57.9,73,30.04,10.0,WNW,9.2,-,N/A,,Mostly Cloudy,300,2014-01-16 03:53:00
11:00 PM,66.9,57.9,73,30.03,10.0,NW,9.2,17.3,N/A,,Mostly Cloudy,310,2014-01-16 04:00:00
11:07 PM,66.9,57.0,70,30.02,10.0,WNW,6.9,-,N/A,,Scattered Clouds,300,2014-01-16 04:07:00
11:53 PM,68.0,55.0,63,30.01,10.0,NW,8.1,-,N/A,,Partly Cloudy,310,2014-01-16 04:53:00